Time,TemperatureF,DewpointF,PressureIn,WindDirection,WindDirectionDegrees,WindSpeedMPH,WindSpeedGustMPH,Humidity,HourlyPrecipIn,Conditions,Clouds,dailyrainin,SoftwareType,DateUTC
2013-08-28 00:04:00,89.7,70.0,29.33,North,357,0.0,-999.0,53,-99.99,,,0.00,weatherlink.com 1.10,2013-08-28 07:04:00,
2013-08-28 00:19:00,89.3,70.0,29.33,North,357,0.0,-999.0,53,-99.99,,,0.00,weatherlink.com 1.10,2013-08-28 07:19:00,
2013-08-28 00:34:00,89.5,70.0,29.33,North,357,0.0,-999.0,52,-99.99,,,0.00,weatherlink.com 1.10,2013-08-28 07:34:00,
2013-08-28 00:49:00,89.7,69.0,29.33,North,357,0.0,-999.0,51,-99.99,,,0.00,weatherlink.com 1.10,2013-08-28 07:49:00,
2013-08-28 01:04:00,89.3,69.0,29.33,North,357,0.0,-999.0,52,-99.99,,,0.00,weatherlink.com 1.10,2013-08-28 08:04:00,
2013-08-28 01:19:00,88.8,69.0,29.32,North,357,0.0,-999.0,53,-99.99,,,0.00,weatherlink.com 1.10,2013-08-28 08:19:00,
2013-08-28 01:34:00,88.8,68.0,29.32,North,359,0.0,-999.0,51,-99.99,,,0.00,weatherlink.com 1.10,2013-08-28 08:34:00,
2013-08-28 01:49:00,88.6,67.0,29.32,North,359,0.0,-999.0,49,-99.99,,,0.00,weatherlink.com 1.10,2013-08-28 08:49:00,
2013-08-28 02:04:00,88.4,67.0,29.31,North,359,0.0,-999.0,50,-99.99,,,0.00,weatherlink.com 1.10,2013-08-28 09:04:00,
2013-08-28 02:19:00,88.4,68.0,29.31,North,357,0.0,-999.0,51,-99.99,,,0.00,weatherlink.com 1.10,2013-08-28 09:19:00,
2013-08-28 02:34:00,88.0,69.0,29.31,North,357,0.0,-999.0,53,-99.99,,,0.00,weatherlink.com 1.10,2013-08-28 09:34:00,
2013-08-28 02:49:00,88.0,69.0,29.31,North,359,0.0,-999.0,53,-99.99,,,0.00,weatherlink.com 1.10,2013-08-28 09:49:00,
2013-08-28 03:04:00,88.0,69.0,29.31,North,359,0.0,-999.0,53,-99.99,,,0.00,weatherlink.com 1.10,2013-08-28 10:04:00,
2013-08-28 03:19:00,87.6,69.0,29.31,North,359,0.0,-999.0,55,-99.99,,,0.00,weatherlink.com 1.10,2013-08-28 10:19:00,
2013-08-28 03:34:00,87.6,70.0,29.31,North,359,0.0,-999.0,56,-99.99,,,0.00,weatherlink.com 1.10,2013-08-28 10:34:00,
2013-08-28 03:49:00,87.2,69.0,29.31,North,359,0.0,-999.0,55,-99.99,,,0.00,weatherlink.com 1.10,2013-08-28 10:49:00,
2013-08-28 04:05:00,86.5,70.0,29.31,North,357,0.0,-999.0,58,-99.99,,,0.00,weatherlink.com 1.10,2013-08-28 11:05:00,
2013-08-28 04:20:00,86.1,70.0,29.31,North,357,0.0,-999.0,58,-99.99,,,0.00,weatherlink.com 1.10,2013-08-28 11:20:00,
2013-08-28 04:35:00,85.9,70.0,29.32,North,356,0.0,-999.0,59,-99.99,,,0.00,weatherlink.com 1.10,2013-08-28 11:35:00,
2013-08-28 04:50:00,85.7,70.0,29.32,North,357,0.0,-999.0,59,-99.99,,,0.00,weatherlink.com 1.10,2013-08-28 11:50:00,
2013-08-28 05:05:00,85.3,69.0,29.32,North,359,0.0,-999.0,59,-99.99,,,0.00,weatherlink.com 1.10,2013-08-28 12:05:00,
2013-08-28 05:20:00,85.1,70.0,29.32,North,359,0.0,-999.0,60,-99.99,,,0.00,weatherlink.com 1.10,2013-08-28 12:20:00,
2013-08-28 05:35:00,85.1,70.0,29.33,North,359,0.0,-999.0,60,-99.99,,,0.00,weatherlink.com 1.10,2013-08-28 12:35:00,
2013-08-28 05:50:00,85.1,70.0,29.33,North,359,0.0,-999.0,60,-99.99,,,0.00,weatherlink.com 1.10,2013-08-28 12:50:00,
2013-08-28 06:05:00,-999.0,-99.9,29.34,North,-999,-999.0,-999.0,-999,-99.99,,,0.00,weatherlink.com 1.10,2013-08-28 13:05:00,
2013-08-28 06:20:00,-999.0,-99.9,29.34,North,-999,-999.0,-999.0,-999,-99.99,,,0.00,weatherlink.com 1.10,2013-08-28 13:20:00,
2013-08-28 06:35:00,-999.0,-99.9,29.34,North,-999,-999.0,-999.0,-999,-99.99,,,0.00,weatherlink.com 1.10,2013-08-28 13:35:00,
2013-08-28 06:50:00,-999.0,-99.9,29.35,North,-999,-999.0,-999.0,-999,-99.99,,,0.00,weatherlink.com 1.10,2013-08-28 13:50:00,
2013-08-28 07:05:00,-999.0,-99.9,29.36,North,-999,-999.0,-999.0,-999,-99.99,,,0.00,weatherlink.com 1.10,2013-08-28 14:05:00,
2013-08-28 07:20:00,-999.0,-99.9,29.36,North,-999,-999.0,-999.0,-999,-99.99,,,0.00,weatherlink.com 1.10,2013-08-28 14:20:00,
2013-08-28 07:35:00,-999.0,-99.9,29.37,North,-999,-999.0,-999.0,-999,-99.99,,,0.00,weatherlink.com 1.10,2013-08-28 14:35:00,
2013-08-28 07:50:00,88.4,68.0,29.38,North,357,0.0,-999.0,51,-99.99,,,0.00,weatherlink.com 1.10,2013-08-28 14:50:00,
2013-08-28 08:05:00,91.0,68.0,29.38,North,357,0.0,-999.0,47,-99.99,,,0.00,weatherlink.com 1.10,2013-08-28 15:05:00,
2013-08-28 08:20:00,93.4,68.0,29.38,North,357,0.0,-999.0,43,-99.99,,,0.00,weatherlink.com 1.10,2013-08-28 15:20:00,
2013-08-28 08:35:00,95.9,68.0,29.38,North,357,0.0,-999.0,40,-99.99,,,0.00,weatherlink.com 1.10,2013-08-28 15:35:00,
2013-08-28 08:50:00,97.3,68.0,29.39,North,356,0.0,-999.0,38,-99.99,,,0.00,weatherlink.com 1.10,2013-08-28 15:50:00,
2013-08-28 09:05:00,98.0,66.0,29.39,North,357,0.0,-999.0,35,-99.99,,,0.00,weatherlink.com 1.10,2013-08-28 16:05:00,
2013-08-28 09:21:00,99.7,67.0,29.39,North,357,0.0,-999.0,34,-99.99,,,0.00,weatherlink.com 1.10,2013-08-28 16:21:00,
2013-08-28 09:36:00,100.7,66.0,29.40,North,357,0.0,-999.0,32,-99.99,,,0.00,weatherlink.com 1.10,2013-08-28 16:36:00,
2013-08-28 09:51:00,102.0,65.0,29.40,North,356,0.0,-999.0,30,-99.99,,,0.00,weatherlink.com 1.10,2013-08-28 16:51:00,
2013-08-28 10:06:00,102.3,65.0,29.40,North,357,0.0,-999.0,30,-99.99,,,0.00,weatherlink.com 1.10,2013-08-28 17:06:00,
2013-08-28 10:21:00,103.1,64.0,29.40,North,357,0.0,-999.0,28,-99.99,,,0.00,weatherlink.com 1.10,2013-08-28 17:21:00,
2013-08-28 10:36:00,103.3,64.0,29.40,NW,312,0.0,-999.0,28,-99.99,,,0.00,weatherlink.com 1.10,2013-08-28 17:36:00,
2013-08-28 10:51:00,103.8,65.0,29.40,NNW,342,0.0,-999.0,28,-99.99,,,0.00,weatherlink.com 1.10,2013-08-28 17:51:00,
2013-08-28 11:21:00,104.1,65.0,29.41,North,354,1.0,-999.0,28,-99.99,,,0.00,weatherlink.com 1.10,2013-08-28 18:21:00,
2013-08-28 11:36:00,104.9,65.0,29.40,North,354,2.0,-999.0,27,-99.99,,,0.00,weatherlink.com 1.10,2013-08-28 18:36:00,
2013-08-28 11:51:00,104.9,65.0,29.40,North,357,4.0,-999.0,27,-99.99,,,0.00,weatherlink.com 1.10,2013-08-28 18:51:00,
2013-08-28 12:06:00,105.4,65.0,29.40,North,357,2.0,-999.0,27,-99.99,,,0.00,weatherlink.com 1.10,2013-08-28 19:06:00,
2013-08-28 12:21:00,106.2,64.0,29.40,North,357,1.0,-999.0,25,-99.99,,,0.00,weatherlink.com 1.10,2013-08-28 19:21:00,
2013-08-28 12:36:00,107.1,65.0,29.39,North,356,1.0,-999.0,25,-99.99,,,0.00,weatherlink.com 1.10,2013-08-28 19:36:00,
2013-08-28 12:51:00,107.1,65.0,29.39,North,356,4.0,-999.0,25,-99.99,,,0.00,weatherlink.com 1.10,2013-08-28 19:51:00,
2013-08-28 13:06:00,107.4,65.0,29.38,WSW,251,0.0,-999.0,25,-99.99,,,0.00,weatherlink.com 1.10,2013-08-28 20:06:00,
2013-08-28 13:21:00,107.4,65.0,29.38,North,356,4.0,-999.0,25,-99.99,,,0.00,weatherlink.com 1.10,2013-08-28 20:21:00,
2013-08-28 13:36:00,107.4,65.0,29.37,North,354,3.0,-999.0,25,-99.99,,,0.00,weatherlink.com 1.10,2013-08-28 20:36:00,
2013-08-28 13:51:00,107.7,64.0,29.37,North,354,0.0,-999.0,24,-99.99,,,0.00,weatherlink.com 1.10,2013-08-28 20:51:00,
2013-08-28 14:06:00,107.4,64.0,29.36,North,354,1.0,-999.0,24,-99.99,,,0.00,weatherlink.com 1.10,2013-08-28 21:06:00,
2013-08-28 14:21:00,107.9,64.0,29.35,North,354,1.0,-999.0,24,-99.99,,,0.00,weatherlink.com 1.10,2013-08-28 21:21:00,
2013-08-28 14:36:00,108.5,65.0,29.35,North,353,0.0,-999.0,24,-99.99,,,0.00,weatherlink.com 1.10,2013-08-28 21:36:00,
2013-08-28 14:51:00,109.1,64.0,29.34,North,356,3.0,-999.0,23,-99.99,,,0.00,weatherlink.com 1.10,2013-08-28 21:51:00,
2013-08-28 15:06:00,108.5,63.0,29.34,North,356,0.0,-999.0,23,-99.99,,,0.00,weatherlink.com 1.10,2013-08-28 22:06:00,
2013-08-28 15:21:00,108.5,63.0,29.33,NW,325,0.0,-999.0,23,-99.99,,,0.00,weatherlink.com 1.10,2013-08-28 22:21:00,
2013-08-28 15:36:00,108.2,64.0,29.33,North,356,2.0,-999.0,24,-99.99,,,0.00,weatherlink.com 1.10,2013-08-28 22:36:00,
2013-08-28 15:51:00,109.1,64.0,29.33,NNW,346,2.0,-999.0,23,-99.99,,,0.00,weatherlink.com 1.10,2013-08-28 22:51:00,
2013-08-28 16:06:00,108.5,63.0,29.32,WNW,291,1.0,-999.0,23,-99.99,,,0.00,weatherlink.com 1.10,2013-08-28 23:06:00,
2013-08-28 16:21:00,108.8,64.0,29.31,North,356,0.0,-999.0,23,-99.99,,,0.00,weatherlink.com 1.10,2013-08-28 23:21:00,
2013-08-28 16:36:00,108.2,63.0,29.31,West,274,4.0,-999.0,23,-99.99,,,0.00,weatherlink.com 1.10,2013-08-28 23:36:00,
2013-08-28 16:51:00,108.2,63.0,29.32,North,356,8.0,-999.0,23,-99.99,,,0.00,weatherlink.com 1.10,2013-08-28 23:51:00,
2013-08-28 17:06:00,107.7,63.0,29.32,North,356,0.0,-999.0,23,-99.99,,,0.00,weatherlink.com 1.10,2013-08-29 00:06:00,
2013-08-28 17:21:00,108.2,63.0,29.32,North,356,1.0,-999.0,23,-99.99,,,0.00,weatherlink.com 1.10,2013-08-29 00:21:00,
2013-08-28 17:36:00,108.2,64.0,29.32,North,357,1.0,-999.0,24,-99.99,,,0.00,weatherlink.com 1.10,2013-08-29 00:36:00,
2013-08-28 17:51:00,107.7,63.0,29.32,North,357,8.0,-999.0,23,-99.99,,,0.00,weatherlink.com 1.10,2013-08-29 00:51:00,
2013-08-28 18:06:00,102.5,64.0,29.31,North,357,1.0,-999.0,28,-99.99,,,0.00,weatherlink.com 1.10,2013-08-29 01:06:00,
2013-08-28 18:21:00,100.2,65.0,29.32,North,357,3.0,-999.0,31,-99.99,,,0.00,weatherlink.com 1.10,2013-08-29 01:21:00,
2013-08-28 18:36:00,95.9,63.0,29.35,NNW,343,7.0,-999.0,34,-99.99,,,0.00,weatherlink.com 1.10,2013-08-29 01:36:00,
2013-08-28 18:51:00,93.4,63.0,29.36,North,356,3.0,-999.0,37,-99.99,,,0.00,weatherlink.com 1.10,2013-08-29 01:51:00,
2013-08-28 19:06:00,94.5,62.0,29.36,North,356,2.0,-999.0,34,-99.99,,,0.00,weatherlink.com 1.10,2013-08-29 02:06:00,
2013-08-28 19:21:00,96.1,63.0,29.38,North,356,2.0,-999.0,33,-99.99,,,0.00,weatherlink.com 1.10,2013-08-29 02:21:00,
2013-08-28 19:36:00,95.1,68.0,29.38,North,357,4.0,-999.0,41,-99.99,,,0.00,weatherlink.com 1.10,2013-08-29 02:36:00,
2013-08-28 19:51:00,91.6,75.0,29.39,North,357,3.0,-999.0,58,-99.99,,,0.01,weatherlink.com 1.10,2013-08-29 02:51:00,
2013-08-28 20:06:00,90.1,74.0,29.39,NW,320,4.0,-999.0,60,-99.99,,,0.01,weatherlink.com 1.10,2013-08-29 03:06:00,
2013-08-28 20:21:00,88.8,75.0,29.40,North,354,0.0,-999.0,63,-99.99,,,0.01,weatherlink.com 1.10,2013-08-29 03:21:00,
2013-08-28 20:36:00,88.0,76.0,29.40,North,357,0.0,-999.0,68,-99.99,,,0.03,weatherlink.com 1.10,2013-08-29 03:36:00,
2013-08-28 20:51:00,89.3,69.0,29.41,North,357,10.0,-999.0,51,-99.99,,,0.03,weatherlink.com 1.10,2013-08-29 03:51:00,
2013-08-28 21:06:00,86.7,69.0,29.43,North,356,3.0,-999.0,55,-99.99,,,0.03,weatherlink.com 1.10,2013-08-29 04:06:00,
2013-08-28 21:21:00,81.8,72.0,29.45,North,354,6.0,-999.0,72,-99.99,,,0.12,weatherlink.com 1.10,2013-08-29 04:21:00,
2013-08-28 21:36:00,81.1,72.0,29.43,North,359,2.0,-999.0,74,-99.99,,,0.12,weatherlink.com 1.10,2013-08-29 04:36:00,
2013-08-28 21:51:00,82.4,72.0,29.44,North,356,6.0,-999.0,70,-99.99,,,0.12,weatherlink.com 1.10,2013-08-29 04:51:00,
2013-08-28 22:06:00,82.8,71.0,29.44,North,350,5.0,-999.0,68,-99.99,,,0.12,weatherlink.com 1.10,2013-08-29 05:06:00,
2013-08-28 22:21:00,84.3,69.0,29.45,North,357,4.0,-999.0,61,-99.99,,,0.12,weatherlink.com 1.10,2013-08-29 05:21:00,
2013-08-28 22:36:00,85.9,69.0,29.45,North,357,6.0,-999.0,58,-99.99,,,0.12,weatherlink.com 1.10,2013-08-29 05:36:00,
2013-08-28 22:51:00,86.7,69.0,29.47,North,357,0.0,-999.0,56,-99.99,,,0.12,weatherlink.com 1.10,2013-08-29 05:51:00,
2013-08-28 23:06:00,86.1,69.0,29.47,North,357,2.0,-999.0,57,-99.99,,,0.12,weatherlink.com 1.10,2013-08-29 06:06:00,
2013-08-28 23:21:00,86.1,67.0,29.47,North,357,1.0,-999.0,54,-99.99,,,0.12,weatherlink.com 1.10,2013-08-29 06:21:00,
2013-08-28 23:36:00,86.5,72.0,29.47,NW,315,1.0,-999.0,63,-99.99,,,0.12,weatherlink.com 1.10,2013-08-29 06:36:00,
2013-08-28 23:51:00,83.2,72.0,29.49,SSE,151,3.0,-999.0,69,-99.99,,,0.12,weatherlink.com 1.10,2013-08-29 06:51:00,